EW6157 Weather Reports


Display with metric or nautical units.
time (UTC)temp
F
wind
direction
speed
MPH
gust
MPH
rain 1hr
in
rain 24hr
in
rain mn
in
humidity
%
barometer
mb
20260503013002 65 274 1.0 2.0 0.00 0.01 0.01 25 1017.1
20260503011503 68 275 0.0 4.0 0.00 0.01 0.01 22 1016.9
20260503010003 71 275 2.0 6.0 0.00 0.01 0.01 21 1017.0
20260503004501 72 200 0.0 2.0 0.00 0.01 0.01 20 1017.0
20260503003107 71 200 1.0 3.0 0.00 0.01 0.01 20 1017.0
20260503001612 69 212 1.0 6.0 0.00 0.01 0.01 21 1017.1
20260503000046 73 185 1.0 5.0 0.00 0.01 0.01 20 1017.2
20260502234629 72 214 0.0 7.0 0.00 0.01 0.01 21 1017.3
20260502233046 70 186 0.0 5.0 0.00 0.01 0.01 22 1017.5
20260502231631 71 230 2.0 10.0 0.00 0.01 0.01 20 1017.6
20260502230051 71 188 2.0 7.0 0.00 0.01 0.01 20 1017.7
20260502224507 73 113 2.0 6.0 0.00 0.01 0.01 20 1017.6
20260502223053 71 311 0.0 2.0 0.00 0.01 0.01 21 1017.7
20260502221501 71 311 2.0 8.0 0.00 0.01 0.01 20 1018.0
20260502220057 73 180 3.0 10.0 0.00 0.01 0.01 20 1018.2
20260502214548 74 30 2.0 4.0 0.00 0.01 0.01 19 1018.4
20260502213021 72 311 2.0 8.0 0.00 0.01 0.01 20 1018.7
20260502211625 72 270 3.0 11.0 0.00 0.01 0.01 19 1019.0
20260502210047 72 274 0.0 6.0 0.00 0.01 0.01 20 1019.2
20260502204544 72 48 1.0 7.0 0.00 0.01 0.01 19 1019.5
20260502203040 72 86 4.0 8.0 0.00 0.01 0.01 19 1019.7
20260502201539 72 194 4.0 8.0 0.00 0.01 0.01 20 1019.9
20260502200037 72 207 2.0 6.0 0.00 0.01 0.01 19 1020.2
20260502194537 71 64 3.0 9.0 0.00 0.01 0.01 20 1020.3
20260502193036 70 21 2.0 6.0 0.00 0.01 0.01 21 1020.6
20260502191531 70 96 1.0 10.0 0.00 0.01 0.01 22 1020.9
20260502190030 70 35 5.0 10.0 0.00 0.01 0.01 21 1021.2
20260502184550 71 32 4.0 9.0 0.00 0.01 0.01 20 1021.2
20260502183027 70 17 3.0 7.0 0.00 0.01 0.01 22 1021.4
20260502181530 70 43 1.0 10.0 0.00 0.01 0.01 22 1021.7
20260502163011 63 314 2.0 10.0 0.00 0.01 0.01 42 1022.7
20260502161505 62 274 6.0 12.0 0.00 0.01 0.01 42 1022.7
20260502151602 57 253 6.0 11.0 0.00 0.01 0.01 57 1023.0
20260502123007 40 210 2.0 6.0 0.01 0.01 0.01 86 1022.2
20260502121508 39 221 2.0 6.0 0.01 0.01 0.01 87 1022.0
20260502114505 39 200 3.0 7.0 0.00 0.00 0.00 88 1021.8
20260502113101 39 252 2.0 5.0 0.00 0.00 0.00 88 1021.7
20260502111601 39 242 1.0 6.0 0.00 0.00 0.00 87 1021.8
20260502104559 38 243 3.0 6.0 0.00 0.00 0.00 88 1021.8
20260502103101 38 240 1.0 5.0 0.00 0.00 0.00 88 1021.8
20260502101629 38 244 3.0 7.0 0.00 0.00 0.00 88 1021.7
20260502100117 38 207 1.0 4.0 0.00 0.00 0.00 88 1021.7
20260502071535 40 245 1.0 3.0 0.00 0.01 0.00 84 1021.5
20260502070043 40 317 0.0 1.0 0.00 0.01 0.00 83 1021.5
20260502064530 40 317 0.0 0.0 0.00 0.01 0.00 82 1021.4
20260502063032 41 317 0.0 2.0 0.00 0.01 0.00 82 1021.3
20260502061530 40 317 0.0 1.0 0.00 0.01 0.00 82 1021.4
20260502060031 40 318 0.0 0.0 0.00 0.01 0.00 83 1021.3
20260502054527 40 335 0.0 0.0 0.00 0.01 0.00 82 1021.3
20260502053025 40 335 0.0 0.0 0.00 0.01 0.00 82 1021.4
20260502051528 40 335 0.0 0.0 0.00 0.01 0.00 81 1021.2
20260502050023 41 335 0.0 0.0 0.00 0.01 0.00 82 1021.0
20260502044518 41 339 0.0 0.0 0.00 0.01 0.01 80 1020.8
20260502043015 43 339 0.0 0.0 0.00 0.01 0.01 80 1020.7
20260502041512 43 339 0.0 0.0 0.00 0.01 0.01 82 1020.6
20260502040010 43 339 0.0 0.0 0.00 0.01 0.01 81 1020.4
20260502034507 44 339 0.0 0.0 0.00 0.01 0.01 79 1020.4
20260502033006 44 339 0.0 0.0 0.00 0.01 0.01 78 1020.4
20260502031505 46 339 0.0 0.0 0.00 0.01 0.01 74 1020.3
20260502030005 47 339 0.0 1.0 0.00 0.01 0.01 74 1020.0
20260502024509 47 325 0.0 2.0 0.00 0.01 0.01 73 1019.9
20260502023002 48 327 0.0 1.0 0.00 0.01 0.01 71 1019.8
20260502021600 49 326 0.0 0.0 0.00 0.01 0.01 70 1019.7
20260502020059 49 326 0.0 2.0 0.00 0.01 0.01 69 1019.3
20260502014555 50 321 0.0 1.0 0.00 0.01 0.01 67 1019.0